Погода в Сюйчжоу

Китай     34°15′17″N   117°12′22″E
темп.,
°C
ветер,
м/с
пор.,
м/с
влажн.,
%
обл.,
%
осадки,
мм/ч
давл.,
гПа
погр.,
м
15 апреля, чт
чт1523:00+10ююв375862 0.0 1018169
02:00+10ююв41171100 0.0 1017319
05:00+10ююв3977100 0.0 1016270
08:00+13ююв586527 0.0 1016429
11:00+18ю67487 0.0 10151002
14:00+21ююз674626 0.0 10121439
17:00+21зюз5858100 0.0 1012988
20:00+18ююз51274100 0.1 1012475
16 апреля, пт
пт1623:00+16зюз498468 0.2 1015247
02:00+12ссз493696 0.2 1016195
05:00+11ссз41124100 0.0 1017341
08:00+13с31025100 0.0 1018336
11:00+19сз2316100 0.0 1018868
14:00+22зюз4617100 0.0 10161623
17:00+20зюз582769 0.0 10161260
20:00+15юз6134763 0.0 1016466
17 апреля, сб
сб1723:00+14зсз512480 0.0 1019415
02:00+11сз410260 0.0 1020228
05:00+10сз512260 0.0 1021335
08:00+12ссз712290 0.0 1024589
11:00+17ссз68150 0.0 10252365
14:00+19сз57160 0.0 10232328
17:00+19ссз47200 0.0 10222030
20:00+13с222811 0.0 102325
18 апреля, вс
вс1823:00+12ю1130100 0.0 102415
02:00+10юз22300 0.0 102329
05:00+9зюз11290 0.0 102213
08:00+15ююз002769 0.0 1023178
11:00+21ю2120100 0.0 10221139
14:00+23ю32200 0.0 10191730
17:00+22ю44270 0.0 10171196
20:00+16ю36410 0.0 1018128
19 апреля, пн
пн1923:00+13ююв35450 0.0 101897
02:00+11ююв34410 0.0 101780
05:00+10ю34540 0.0 101789
08:00+15ю36440 0.0 1018285
11:00+22ююв45290 0.0 1016981
14:00+25ю45245 0.0 10141477
17:00+24ю45290 0.0 10131297
20:00+17юв34480 0.0 101484